HJ-2B

Last updated on Wed Oct 28 2020 00:02:03 GMT+0000 (Coordinated Universal Time)

1 46479U 20067B 20301.59464107 .00000096 00000-0 21230-4 0 9994 2 46479 98.0463 16.7946 0023669 273.7890 86.0617 14.76915124 4492
UTC large
Height (km)
Speed (km/s)
/
Latitude / Longitude
Inclination (degrees)
Orbital Period (minutes)
Azimuth
Elevation
Range (km)
Doppler Factor

Next 0 passes for location: London (51.5072 / 0.1276)

Sorry there are no passes over London.